User: anonymous   Login
Location: Arbon
(43.0005°N, 0.7472°E)
Time: 15:28:19
(UTC+00:00)
Language:

Envisat - Orbit

View from above orbital plane
View from above orbital plane
View from above satellite
View from above satellite

Ground track
Ground track

The orbit data is extracted from the following two-line orbital elements,

1 27386U 02009A   20335.02938509  .00000052  00000-0  30780-4 0  9995
2 27386  98.1398 333.3971 0001321  90.9104 333.2454 14.38001894982411
Epoch (UTC): 30 November 2020 00:42:18
Eccentricity: 0.0001321
inclination: 98.1398°
perigee height: 764 km
apogee height: 766 km
right ascension of ascending node: 333.3971°
argument of perigee: 90.9104°
revolutions per day: 14.38001894
mean anomaly at epoch: 333.2454°
orbit number at epoch: 98241

The dashed part of the orbit path shows where the satellite is in the earth's shadow,  

DLR